Buckhannon, WV

1:57 PM EST on January 22, 2017 (GMT -0500)
Buckhannon

Weather History for KW22 - February, 2013

Change the Weather History Date:

Monday, February 11, 2013

  Actual Average (KCKB) Record (KCKB)
Temperature  
Mean Temperature 51 °F -  
Max Temperature 60 °F 40 °F 73 °F (1999)
Min Temperature 42 °F 16 °F -8 °F (1979)
Degree Days  
Heating Degree Days 14    
Growing Degree Days 1 (Base 50)    
Moisture  
Dew Point 35 °F    
Average Humidity 54    
Maximum Humidity 87    
Minimum Humidity 23    
Precipitation  
Precipitation 0.00 in - - ()
Sea Level Pressure  
Sea Level Pressure 29.87 in    
Wind  
Wind Speed 14 mph (SW)    
Max Wind Speed 30 mph    
Max Gust Speed 54 mph    
Visibility 10 miles    
Events      
Averages and records for this station are not official NWS values.
T = Trace of Precipitation, MM = Missing Value Source: NWS Daily Summary

Daily Weather History Graph

Daily Weather History Graph

Search for Another Location

Airport or City:

Trip Planner

Search our weather history database for the weather conditions in past years. The results will help you decide how hot, cold, wet, or windy it might be!

Date:

Astronomy

Feb. 11, 2013 Rise Set
Actual Time 7:16 AM EST 5:54 PM EST
Civil Twilight 6:49 AM EST 6:21 PM EST
Nautical Twilight 6:18 AM EST 6:53 PM EST
Astronomical Twilight 5:46 AM EST 7:24 PM EST
Moon 7:41 AM EST (2/11) 7:47 PM EST (2/11)
Length of Visible Light 11h 32m
Length of Day
10h 37m
Waxing Crescent, 3% of the Moon is Illuminated
Feb 11
Waxing Crescent
Feb 17
First Quarter
Feb 25
Full
Mar 4
Last Quarter
Mar 11
New

Hourly Weather History & Observations

Time (EST) Temp. Windchill Dew Point Humidity Pressure Visibility Wind Dir Wind Speed Gust Speed Precip Events Conditions
12:15 AM 42.8 °F 39.3 °F 39.2 °F 87% 29.94 in 10.0 mi SSE 5.8 mph - N/A   Overcast
12:35 AM 44.6 °F 38.4 °F 39.2 °F 81% 29.93 in 10.0 mi South 12.7 mph - N/A   Overcast
12:55 AM 48.2 °F - 39.2 °F 71% 29.93 in 10.0 mi South 17.3 mph 21.9 mph N/A   Overcast
1:15 AM 48.2 °F - 39.2 °F 71% 29.92 in 10.0 mi South 13.8 mph 20.7 mph N/A   Overcast
1:35 AM 50.0 °F - 39.2 °F 66% 29.91 in 10.0 mi South 13.8 mph - N/A   Overcast
1:55 AM 50.0 °F - 39.2 °F 66% 29.91 in 10.0 mi South 12.7 mph 17.3 mph N/A   Overcast
2:15 AM 50.0 °F - 39.2 °F 66% 29.90 in 10.0 mi South 11.5 mph - N/A   Overcast
2:35 AM 51.8 °F - 39.2 °F 62% 29.90 in 10.0 mi South 9.2 mph - N/A   Overcast
2:55 AM 51.8 °F - 39.2 °F 62% 29.89 in 10.0 mi South 8.1 mph - N/A   Overcast
3:15 AM 51.8 °F - 41.0 °F 67% 29.89 in 10.0 mi South 8.1 mph - N/A   Overcast
3:35 AM 51.8 °F - 41.0 °F 67% 29.88 in 10.0 mi South 9.2 mph - N/A   Overcast
3:55 AM 53.6 °F - 42.8 °F 67% 29.88 in 10.0 mi SSW 12.7 mph 19.6 mph N/A   Overcast
4:15 AM 53.6 °F - 42.8 °F 67% 29.88 in 10.0 mi SSW 13.8 mph 17.3 mph N/A   Overcast
4:35 AM 53.6 °F - 42.8 °F 67% 29.88 in 10.0 mi SSW 11.5 mph 20.7 mph N/A   Overcast
4:55 AM 53.6 °F - 42.8 °F 67% 29.88 in 10.0 mi SSW 13.8 mph 23.0 mph N/A   Overcast
5:15 AM 53.6 °F - 42.8 °F 67% 29.88 in 10.0 mi SSW 13.8 mph 23.0 mph N/A   Mostly Cloudy
5:35 AM 53.6 °F - 42.8 °F 67% 29.88 in 10.0 mi SSW 12.7 mph 20.7 mph N/A   Mostly Cloudy
5:55 AM 53.6 °F - 42.8 °F 67% 29.88 in 10.0 mi SSW 12.7 mph 19.6 mph N/A   Mostly Cloudy
6:15 AM 53.6 °F - 44.6 °F 72% 29.88 in 8.0 mi SSW 15.0 mph 19.6 mph N/A   Overcast
6:35 AM 53.6 °F - 44.6 °F 72% 29.88 in 10.0 mi SSW 10.4 mph 21.9 mph N/A   Overcast
6:55 AM 53.6 °F - 44.6 °F 72% 29.87 in 9.0 mi SSW 10.4 mph 17.3 mph N/A   Overcast
7:15 AM 53.6 °F - 44.6 °F 72% 29.87 in 10.0 mi SSW 10.4 mph - N/A   Overcast
7:35 AM 53.6 °F - 44.6 °F 72% 29.87 in 7.0 mi SW 10.4 mph - N/A   Mostly Cloudy
7:55 AM 53.6 °F - 46.4 °F 77% 29.88 in 10.0 mi SSW 15.0 mph 23.0 mph N/A   Overcast
8:15 AM 53.6 °F - 46.4 °F 77% 29.88 in 10.0 mi SW 12.7 mph 18.4 mph N/A   Mostly Cloudy
8:35 AM 55.4 °F - 46.4 °F 72% 29.88 in 10.0 mi SW 12.7 mph 18.4 mph N/A   Scattered Clouds
8:55 AM 55.4 °F - 46.4 °F 72% 29.88 in 10.0 mi SSW 12.7 mph 23.0 mph N/A   Mostly Cloudy
9:15 AM 55.4 °F - 46.4 °F 72% 29.88 in 10.0 mi SSW 17.3 mph 24.2 mph N/A   Mostly Cloudy
9:35 AM 55.4 °F - 46.4 °F 72% 29.87 in 10.0 mi SSW 17.3 mph 26.5 mph N/A   Mostly Cloudy
9:55 AM 55.4 °F - 46.4 °F 72% 29.86 in 10.0 mi SW 26.5 mph 34.5 mph N/A   Mostly Cloudy
10:15 AM 55.4 °F - 46.4 °F 72% 29.86 in 10.0 mi SSW 21.9 mph 31.1 mph N/A   Mostly Cloudy
10:35 AM 57.2 °F - 48.2 °F 72% 29.85 in 10.0 mi SW 17.3 mph 24.2 mph N/A   Mostly Cloudy
10:55 AM 57.2 °F - 46.4 °F 67% 29.84 in 10.0 mi SW 15.0 mph 34.5 mph N/A   Mostly Cloudy
11:15 AM 59.0 °F - 44.6 °F 59% 29.82 in 10.0 mi SW 25.3 mph 38.0 mph N/A   Scattered Clouds
11:55 AM 59.0 °F - 41.0 °F 51% 29.81 in 10.0 mi SW 29.9 mph 39.1 mph N/A   Scattered Clouds
12:15 PM 59.0 °F - 37.4 °F 45% 29.82 in 10.0 mi WSW 25.3 mph 43.7 mph N/A   Scattered Clouds
12:55 PM 60.8 °F - 35.6 °F 39% 29.80 in 10.0 mi SW 21.9 mph 35.7 mph N/A   Partly Cloudy
1:15 PM 60.8 °F - 32.0 °F 34% 29.79 in 10.0 mi WSW 25.3 mph 36.8 mph N/A   Clear
1:35 PM 60.8 °F - 28.4 °F 29% 29.78 in 10.0 mi SW 27.6 mph 46.0 mph N/A   Clear
1:55 PM 60.8 °F - 26.6 °F 27% 29.77 in 10.0 mi SW 16.1 mph 42.6 mph N/A   Clear
2:15 PM 60.8 °F - 23.0 °F 23% 29.78 in 10.0 mi SW 20.7 mph 54.1 mph N/A   Clear
2:35 PM 59.0 °F - 23.0 °F 25% 29.78 in 10.0 mi SW 25.3 mph 43.7 mph N/A   Clear
2:55 PM 59.0 °F - 23.0 °F 25% 29.79 in 10.0 mi SW 20.7 mph 41.4 mph N/A   Clear
3:15 PM 59.0 °F - 23.0 °F 25% 29.78 in 10.0 mi SW 27.6 mph 39.1 mph N/A   Clear
3:55 PM 57.2 °F - 23.0 °F 27% 29.78 in 10.0 mi SW 16.1 mph 32.2 mph N/A   Clear
4:15 PM 57.2 °F - 23.0 °F 27% 29.79 in 10.0 mi WSW 17.3 mph 33.4 mph N/A   Clear
4:35 PM 55.4 °F - 23.0 °F 29% 29.79 in 10.0 mi WSW 19.6 mph 32.2 mph N/A   Clear
4:55 PM 55.4 °F - 21.2 °F 26% 29.79 in 10.0 mi WSW 24.2 mph 32.2 mph N/A   Clear
5:55 PM 53.6 °F - 23.0 °F 30% 29.80 in 10.0 mi WSW 15.0 mph 21.9 mph N/A   Clear
6:15 PM 53.6 °F - 23.0 °F 30% 29.81 in 10.0 mi WSW 9.2 mph - N/A   Clear
6:35 PM 51.8 °F - 23.0 °F 33% 29.82 in 10.0 mi WSW 15.0 mph 20.7 mph N/A   Clear
6:55 PM 51.8 °F - 23.0 °F 33% 29.83 in 10.0 mi WSW 20.7 mph 26.5 mph N/A   Clear
7:15 PM 51.8 °F - 21.2 °F 30% 29.85 in 10.0 mi West 20.7 mph 35.7 mph N/A   Clear
7:35 PM 48.2 °F - 21.2 °F 34% 29.87 in 10.0 mi West 18.4 mph 34.5 mph N/A   Clear
7:55 PM 48.2 °F - 21.2 °F 34% 29.88 in 10.0 mi West 16.1 mph 26.5 mph N/A   Clear
8:15 PM 46.4 °F 39.5 °F 23.0 °F 40% 29.89 in 10.0 mi West 17.3 mph 27.6 mph N/A   Clear
8:35 PM 46.4 °F 39.2 °F 24.8 °F 43% 29.90 in 10.0 mi WSW 18.4 mph 28.8 mph N/A   Clear
8:55 PM 44.6 °F 37.8 °F 26.6 °F 49% 29.91 in 10.0 mi WSW 15.0 mph 33.4 mph N/A   Clear
9:15 PM 44.6 °F 38.8 °F 26.6 °F 49% 29.92 in 10.0 mi West 11.5 mph 24.2 mph N/A   Clear
9:35 PM 44.6 °F 36.1 °F 26.6 °F 49% 29.93 in 10.0 mi West 21.9 mph 41.4 mph N/A   Clear
9:55 PM 42.8 °F 33.8 °F 26.6 °F 53% 29.94 in 10.0 mi West 21.9 mph 31.1 mph N/A   Clear
10:15 PM 42.8 °F 35.4 °F 26.6 °F 53% 29.95 in 10.0 mi West 15.0 mph - N/A   Scattered Clouds
10:35 PM 42.8 °F 33.8 °F 26.6 °F 53% 29.96 in 10.0 mi West 21.9 mph 33.4 mph N/A   Mostly Cloudy
10:55 PM 42.8 °F 33.1 °F 26.6 °F 53% 29.96 in 10.0 mi WSW 25.3 mph 33.4 mph N/A   Mostly Cloudy
11:15 PM 42.8 °F 35.1 °F 26.6 °F 53% 29.96 in 10.0 mi West 16.1 mph 20.7 mph N/A   Overcast
11:35 PM 42.8 °F 35.4 °F 26.6 °F 53% 29.96 in 10.0 mi WSW 15.0 mph 24.2 mph N/A   Overcast
11:55 PM 42.8 °F 35.4 °F 26.6 °F 53% 29.97 in 10.0 mi West 15.0 mph 25.3 mph N/A   Overcast